Location: Chuathbaluk
(61.5726°N, 159.2454°W)
Time: 19:01:34
(UTC+00:00)

TIGRISAT - Pass Details

Date: 20 January 2021
Orbit: 605 x 688 km, 97.7° (Epoch: 06 March)

Event Time Altitude Azimuth Distance (km) Brightness Sun altitude
Rises 17:32:07 0° 176° (S) 2,865 ? -12.4°
Reaches altitude 10° 17:34:19 10° 181° (S) 1,970 ? -12.2°
Maximum altitude 17:38:31 54° 259° (W) 759 ? -11.7°
Drops below altitude 10° 17:42:50 10° 337° (NNW) 2,021 ? -11.2°
Enters shadow 17:44:09 - 341° (NNW) 2,558 ? -11.1°
